Location: Unspecified
(0.0000°N, 0.0000°E)
Time: 14:51:48
(UTC+00:00)

Vanguard 2 Rocket - Visible Passes

Search period start: 01 August 2021 00:00
Search period end: 11 August 2021 00:00
Orbit: 555 x 3325 km, 32.9° (Epoch: 01 August)

Date Brightness Start Highest point End Pass type
(mag) Time Alt. Az. Time Alt. Az. Time Alt. Az.
01 Aug 7.6 03:37:53 54° NNE 03:37:53 54° NNE 03:42:09 10° NE visible
01 Aug 10.7 19:19:52 10° WSW 19:32:56 22° SSW 19:46:26 11° SSE visible
01 Aug 10.7 21:45:45 10° SSW 21:52:13 16° SSW 21:52:13 16° SSW visible
02 Aug 9.3 02:41:38 21° ENE 02:41:38 21° ENE 02:43:15 10° ENE visible
02 Aug 8.6 04:47:26 17° WNW 04:49:32 19° NW 04:53:23 10° N visible
02 Aug 10.6 18:16:19 10° WSW 18:29:08 26° SSW 18:44:31 10° SSE visible
02 Aug 10.5 20:41:30 10° SW 20:53:43 18° S 20:55:45 18° S visible
03 Aug 8.1 03:51:09 36° NNW 03:51:09 36° NNW 03:55:41 10° NNE visible
03 Aug 10.6 19:37:12 10° SW 19:49:23 19° S 19:59:18 13° SSE visible
03 Aug 10.7 22:00:16 10° SSW 22:05:05 16° SSW 22:05:05 16° SSW visible
04 Aug 9.0 02:54:50 26° NE 02:54:50 26° NE 02:57:12 10° NE visible
04 Aug 10.7 18:33:24 10° SW 18:45:14 21° S 18:58:42 10° SSE visible
04 Aug 10.5 20:57:06 10° SSW 21:08:38 20° S 21:08:38 20° S visible
05 Aug 8.8 04:04:18 22° NW 04:04:18 22° NW 04:08:38 10° N visible
05 Aug 10.5 19:53:46 10° SW 20:06:03 19° S 20:12:10 16° SSE visible
05 Aug 10.8 22:13:59 10° SSW 22:17:57 16° SSW 22:17:57 16° SSW visible
06 Aug 9.0 03:07:56 26° N 03:07:56 26° N 03:10:44 10° NNE visible
06 Aug 10.7 18:50:30 10° SW 19:01:44 18° S 19:14:01 10° SE visible
06 Aug 10.5 21:11:30 10° SSW 21:21:31 22° S 21:21:31 22° S visible
07 Aug 9.8 02:11:32 13° NE 02:11:32 13° NE 02:12:09 10° NE visible
07 Aug 9.3 04:17:19 12° NW 04:17:34 12° NW 04:20:17 10° NNW visible
07 Aug 10.4 20:09:03 10° SSW 20:22:35 21° SSE 20:25:06 21° SSE visible
07 Aug 10.8 22:27:20 10° SW 22:30:53 17° SSW 22:30:53 17° SSW visible
08 Aug 9.2 03:20:53 20° N 03:20:53 20° N 03:23:47 10° NNE visible
08 Aug 10.6 19:06:41 10° SSW 19:18:22 19° S 19:28:43 12° SE visible
08 Aug 10.4 21:25:11 10° SSW 21:34:30 25° S 21:34:30 25° S visible
09 Aug 9.7 02:24:25 16° NNE 02:24:25 16° NNE 02:25:39 10° NNE visible
09 Aug 10.3 20:23:17 10° SSW 20:38:10 26° SSE 20:38:10 26° SSE visible
09 Aug 10.8 22:40:40 10° SW 22:43:57 17° SW 22:43:57 17° SW visible
10 Aug 9.6 03:33:41 14° NNW 03:33:41 14° NNW 03:36:04 10° N visible
10 Aug 10.4 19:21:38 10° SSW 19:34:46 21° SSE 19:41:52 18° SE visible
10 Aug 10.3 21:38:34 10° SW 21:47:40 29° SSW 21:47:40 29° SSW visible
